Regional Weather Roundup
Issued by NWS Albany, NY

Home | Current Version | Previous Version | Graphics & Text | Print | Product List | Glossary Off
Versions: 1 2 3 4 5 6 7 8 9 10 11 12 13 14 15 16 17 18 19 20 21 22 23 24 25 26 27 28 29 30 31 32 33 34 35 36 37 38 39 40 41 42 43 44 45 46 47 48 49 50

000
ASUS41 KALY 191510
RWRALY

NEW YORK STATE HOURLY WEATHER ROUNDUP
NATIONAL WEATHER SERVICE ALBANY NY
1100 AM EDT SUN OCT 19 2014

NOTE: "FAIR" INDICATES FEW OR NO CLOUDS BELOW 12,000 FEET WITH NO
SIGNIFICANT WEATHER AND/OR NO OBSTRUCTIONS TO VISIBILITY.

NYZ032-033-038>043-046>054-057>066-NYZ062>081-191600-
EAST


CITY           SKY/WX    TMP DP  RH WIND       PRES   REMARKS
ALBANY         LGT RAIN  44  33  65 NW18G31   29.93R
GLENS FALLS    PTSUNNY   46  31  55 NW10      29.89S
POUGHKEEPSIE   CLOUDY    52  32  46 NW12      29.90S
NEWBURGH       PTSUNNY   50  36  57 NW14G25   29.91S
MONTGOMERY     PTSUNNY   50  33  52 NW18G25   29.90S
WHITE PLAINS   PTSUNNY   52  35  52 NW20G28   29.86S
ISLIP          PTSUNNY   54  39  57 N16G26    29.84R
NEW YORK CITY  PTSUNNY   52  38  58 NW25      29.88S
CENTRAL PARK   CLOUDY    52  35  52 NW13G22   29.92R
$$

NYZ005>009-017-018-044>046-055-056-191600-
CENTRAL


CITY           SKY/WX    TMP DP  RH WIND       PRES   REMARKS
FULTON         CLOUDY    42  29  59 NW14      30.04R
SYRACUSE       CLOUDY    42  28  56 NW16      30.03R
ROME           CLOUDY    40  29  64 N14G20    30.02S WCI  32
ELMIRA         CLOUDY    42  27  55 N16G22    30.06R
BINGHAMTON     CLOUDY    37  26  64 NW15G22   29.99S WCI  28
MONTICELLO     CLOUDY    41  30  65 NW15G23   29.93S
$$

NYZ026>034-041>043-191600-
NORTH


CITY           SKY/WX    TMP DP  RH WIND       PRES   REMARKS
WATERTOWN      CLOUDY    42  28  57 NW12G22   30.03S
FORT DRUM      NOT AVBL
MASSENA        CLOUDY    41  32  70 W14       29.98R
SARANAC LAKE   FLURRIES  34  32  92 W8        29.88S WCI  27
PLATTSBURGH    CLOUDY    45  32  60 NW8G18    29.90S
$$

NYZ001>004-010>016-019>021-191600-
WEST


CITY           SKY/WX    TMP DP  RH WIND       PRES   REMARKS
NIAGARA FALLS  CLOUDY    41  28  60 NW9       30.12S
BUFFALO        PTSUNNY   41  27  57 NW14      30.12S
DUNKIRK        CLOUDY    42  28  57 NW8       30.14R
JAMESTOWN      CLOUDY    37  28  70 NW8       30.10F WCI  31
WELLSVILLE     CLOUDY    36  26  67 NW16G23   30.07R WCI  26
ROCHESTER      CLOUDY    41  27  57 NW16G22   30.09S
PENN YAN       CLOUDY    40  29  64 NW7G17    30.07R
$$

             KEY
       WCI = WIND CHILL INDEX
       VSB = VISIBILITY
       HX  = HEAT INDEX
$$



USA.gov is the U.S. government's official web portal to all federal, state and local government web resources and services.